Erie, CO

3:35 PM MDT on April 20, 2018 (GMT -0600)
Erie Municipal Airport

Weather History for KEIK - August, 2013

Change the Weather History Date:

Tuesday, August 20, 2013

  Actual Average (KBJC) Record (KBJC)
Temperature  
Mean Temperature 78 °F -  
Max Temperature 99 °F 83 °F 96 °F (2013)
Min Temperature 57 °F 58 °F 50 °F (2016)
Cooling Degree Days 13    
Growing Degree Days 28 (Base 50)    
Moisture  
Dew Point 38 °F    
Average Humidity 29    
Maximum Humidity 65    
Minimum Humidity 7    
Precipitation  
Precipitation 0.00 in - - ()
Sea Level Pressure  
Sea Level Pressure 30.05 in    
Wind  
Wind Speed 3 mph (East)    
Max Wind Speed 17 mph    
Max Gust Speed 24 mph    
Visibility 10 miles    
Events      
Averages and records for this station are not official NWS values.
T = Trace of Precipitation, MM = Missing Value Source: NWS Daily Summary

Daily Weather History Graph

Daily Weather History Graph

Search for Another Location

Airport or City:

Astronomy

Aug. 20, 2013 Rise Set
Actual Time 6:16 AM MDT 7:49 PM MDT
Civil Twilight 5:48 AM MDT 8:17 PM MDT
Nautical Twilight 5:13 AM MDT 8:52 PM MDT
Astronomical Twilight 4:37 AM MDT 9:28 PM MDT
Moon 7:22 PM MDT 5:49 AM MDT
Length of Visible Light 14h 29m
Length of Day
13h 32m
Full, 100% of the Moon is Illuminated
Aug 20
Full
Aug 20
Full
Aug 28
Last Quarter
Sep 5
New
Sep 12
First Quarter

Hourly Weather History & Observations

Time (MDT) Temp. Dew Point Humidity Pressure Visibility Wind Dir Wind Speed Gust Speed Precip Events Conditions
12:14 AM 70.7 °F 44.6 °F 39% 30.08 in 10.0 mi Calm Calm - N/A   Clear
12:34 AM 71.2 °F 43.0 °F 36% 30.08 in 10.0 mi SW 3.5 mph - N/A   Clear
12:54 AM 68.4 °F 43.5 °F 41% 30.08 in 10.0 mi Calm Calm - N/A   Clear
1:14 AM 70.3 °F 43.2 °F 37% 30.07 in 10.0 mi Calm Calm - N/A   Clear
1:34 AM 69.8 °F 43.7 °F 39% 30.07 in 10.0 mi SSW 4.6 mph - N/A   Clear
1:54 AM 68.5 °F 44.4 °F 42% 30.07 in 10.0 mi Calm Calm - N/A   Clear
2:14 AM 69.1 °F 44.1 °F 40% 30.07 in 10.0 mi WSW 3.5 mph - N/A   Clear
2:34 AM 70.0 °F 43.5 °F 38% 30.06 in 10.0 mi Calm Calm - N/A   Clear
2:54 AM 67.1 °F 44.6 °F 44% 30.06 in 10.0 mi Calm Calm - N/A   Clear
3:14 AM 66.2 °F 44.6 °F 46% 30.06 in 10.0 mi Calm Calm - N/A   Clear
3:34 AM 64.9 °F 45.3 °F 49% 30.06 in 10.0 mi South 3.5 mph - N/A   Clear
3:54 AM 61.9 °F 45.3 °F 55% 30.06 in 10.0 mi Calm Calm - N/A   Clear
4:14 AM 59.9 °F 45.7 °F 59% 30.06 in 10.0 mi SW 3.5 mph - N/A   Clear
4:34 AM 61.2 °F 45.0 °F 55% 30.06 in 10.0 mi SW 3.5 mph - N/A   Clear
4:54 AM 59.4 °F 44.8 °F 58% 30.06 in 10.0 mi Calm Calm - N/A   Clear
5:14 AM 61.3 °F 44.4 °F 54% 30.06 in 10.0 mi SSW 3.5 mph - N/A   Clear
5:34 AM 60.1 °F 44.4 °F 56% 30.06 in 10.0 mi SSW 3.5 mph - N/A   Clear
5:54 AM 58.5 °F 44.6 °F 60% 30.07 in 10.0 mi SSW 3.5 mph - N/A   Clear
6:14 AM 57.4 °F 44.4 °F 62% 30.07 in 10.0 mi SSW 3.5 mph - N/A   Clear
6:34 AM 57.9 °F 44.6 °F 61% 30.07 in 10.0 mi SSW 3.5 mph - N/A   Clear
6:54 AM 57.6 °F 45.7 °F 65% 30.07 in 7.0 mi SSW 3.5 mph - N/A   Clear
7:14 AM 60.3 °F 46.8 °F 61% 30.08 in 10.0 mi Calm Calm - N/A   Clear
7:34 AM 63.1 °F 46.8 °F 55% 30.08 in 10.0 mi Calm Calm - N/A   Clear
7:54 AM 66.9 °F 47.1 °F 49% 30.08 in 10.0 mi Calm Calm - N/A   Clear
8:14 AM 70.3 °F 49.3 °F 47% 30.08 in 10.0 mi Calm Calm - N/A   Clear
8:34 AM 74.5 °F 46.2 °F 37% 30.08 in 10.0 mi Calm Calm - N/A   Clear
8:54 AM 78.1 °F 41.7 °F 27% 30.08 in 10.0 mi Calm Calm - N/A   Clear
9:14 AM 80.6 °F 41.5 °F 25% 30.08 in 10.0 mi Calm Calm - N/A   Clear
9:34 AM 82.9 °F 42.4 °F 24% 30.08 in 10.0 mi Calm Calm - N/A   Clear
9:54 AM 85.3 °F 41.5 °F 21% 30.08 in 10.0 mi Calm Calm - N/A   Clear
10:14 AM 87.1 °F 39.9 °F 19% 30.08 in 10.0 mi Calm Calm - N/A   Clear
10:31 AM 88.9 °F 39.0 °F 17% 30.08 in 10.0 mi Calm Calm - N/A   Clear
11:34 AM 94.1 °F 35.6 °F 13% 30.06 in 10.0 mi Calm Calm - N/A   Unknown
11:54 AM 94.6 °F 35.6 °F 13% 30.06 in 10.0 mi East 3.5 mph - N/A   Clear
12:14 PM 96.4 °F 33.1 °F 11% 30.05 in 10.0 mi SSE 3.5 mph - N/A   Clear
12:34 PM 97.0 °F 32.2 °F 10% 30.04 in 10.0 mi SSE 10.4 mph 16.1 mph N/A   Clear
12:54 PM 96.6 °F 25.9 °F 8% 30.04 in 10.0 mi Calm Calm - N/A   Clear
1:14 PM 97.0 °F 26.2 °F 8% 30.04 in 10.0 mi SE 15.0 mph 18.4 mph N/A   Clear
1:34 PM 96.8 °F 26.6 °F 8% 30.03 in 10.0 mi SSE 6.9 mph - N/A   Clear
1:54 PM 98.4 °F 27.3 °F 8% 30.03 in 10.0 mi SE 11.5 mph 17.3 mph N/A   Clear
2:14 PM 97.2 °F 25.5 °F 8% 30.02 in 10.0 mi SSW 3.5 mph - N/A   Clear
2:34 PM 97.7 °F 27.5 °F 8% 30.02 in 10.0 mi East 11.5 mph 17.3 mph N/A   Clear
2:54 PM 97.7 °F 26.2 °F 8% 30.01 in 7.0 mi ENE 5.8 mph - N/A   Clear
3:14 PM 99.9 °F 27.0 °F 8% 30.01 in 10.0 mi SE 9.2 mph 16.1 mph N/A   Clear
3:34 PM 99.1 °F 26.1 °F 7% 30.00 in 10.0 mi North 10.4 mph - N/A   Clear
3:54 PM 96.3 °F 25.5 °F 8% 30.00 in 10.0 mi NE 4.6 mph - N/A   Clear
4:14 PM 95.5 °F 24.8 °F 8% 29.99 in 10.0 mi Calm Calm - N/A   Clear
4:34 PM 95.4 °F 26.8 °F 9% 29.99 in 10.0 mi NE 3.5 mph - N/A   Clear
4:54 PM 94.6 °F 27.0 °F 9% 29.99 in 10.0 mi Calm Calm - N/A   Clear
5:14 PM 93.9 °F 28.9 °F 10% 30.00 in 10.0 mi ENE 4.6 mph - N/A   Clear
5:34 PM 92.7 °F 29.8 °F 11% 30.00 in 10.0 mi NNE 5.8 mph - N/A   Clear
5:54 PM 91.8 °F 30.7 °F 11% 30.00 in 10.0 mi NNE 4.6 mph - N/A   Clear
6:14 PM 91.4 °F 31.5 °F 12% 30.00 in 10.0 mi ENE 5.8 mph - N/A   Clear
6:34 PM 90.9 °F 32.2 °F 12% 30.01 in 10.0 mi ESE 4.6 mph - N/A   Clear
6:54 PM 87.4 °F 33.3 °F 14% 30.02 in 10.0 mi North 17.3 mph 24.2 mph N/A   Clear
7:14 PM 88.5 °F 32.5 °F 14% 30.03 in 10.0 mi NNE 13.8 mph 24.2 mph N/A   Clear
7:34 PM 84.6 °F 41.9 °F 22% 30.03 in 10.0 mi NNE 12.7 mph 19.6 mph N/A   Clear
7:54 PM 84.2 °F 39.4 °F 20% 30.03 in 10.0 mi NNE 12.7 mph 18.4 mph N/A   Clear
8:14 PM 84.6 °F 36.9 °F 18% 30.05 in 10.0 mi ENE 11.5 mph 20.7 mph N/A   Clear
8:34 PM 84.2 °F 38.3 °F 20% 30.06 in 10.0 mi NE 15.0 mph 18.4 mph N/A   Clear
8:54 PM 84.2 °F 38.5 °F 20% 30.06 in 10.0 mi ENE 10.4 mph 16.1 mph N/A   Clear
9:14 PM 83.5 °F 38.1 °F 20% 30.07 in 10.0 mi NE 9.2 mph - N/A   Clear
9:34 PM 82.4 °F 38.3 °F 21% 30.07 in 10.0 mi NNE 5.8 mph - N/A   Clear
9:54 PM 77.2 °F 42.4 °F 29% 30.08 in 10.0 mi North 5.8 mph - N/A   Clear
10:14 PM 74.8 °F 42.4 °F 31% 30.07 in 10.0 mi NW 3.5 mph - N/A   Clear
10:34 PM 74.7 °F 41.2 °F 30% 30.07 in 10.0 mi WNW 5.8 mph - N/A   Clear
10:54 PM 76.6 °F 40.8 °F 28% 30.07 in 10.0 mi WNW 9.2 mph - N/A   Clear
11:14 PM 74.3 °F 41.5 °F 31% 30.07 in 10.0 mi WNW 6.9 mph - N/A   Clear
11:34 PM 73.0 °F 42.1 °F 33% 30.07 in 10.0 mi Calm Calm - N/A   Clear
11:54 PM 73.6 °F 41.0 °F 31% 30.07 in 10.0 mi Calm Calm - N/A   Clear